This is the latest recevied weather packets stored in our database for station/object N7CW. If no packets are shown the sender has not sent any weather packets the latest 10 day(s).
| Time | Temp. | Humidity | Pressure | Rain* | Wind** | Luminosity | Snow |
|---|---|---|---|---|---|---|---|
| 1777753301 | 21.11° C | 24% | 1019 hPa | 0 mm | - | 836 W/m² | - |
| 1777752997 | 21.67° C | 24% | 1019.1 hPa | 0 mm | - | 819 W/m² | - |
| 1777752694 | 22.22° C | 24% | 1019.2 hPa | 0 mm | - | 816 W/m² | - |
| 1777752389 | 22.22° C | 24% | 1019.3 hPa | 0 mm | - | 824 W/m² | - |
| 1777752087 | 21.11° C | 25% | 1019.1 hPa | 0 mm | - | 823 W/m² | - |
| 1777751786 | 21.67° C | 24% | 1019.1 hPa | 0 mm | - | 824 W/m² | - |
| 1777751480 | 21.67° C | 24% | 1019.3 hPa | 0 mm | - | 823 W/m² | - |
| 1777751178 | 21.67° C | 23% | 1019.2 hPa | 0 mm | - | 836 W/m² | - |
| 1777750874 | 21.67° C | 24% | 1019.2 hPa | 0 mm | - | 827 W/m² | - |
| 1777750571 | 20° C | 25% | 1019.3 hPa | 0 mm | - | 830 W/m² | - |
| 1777750268 | 21.11° C | 24% | 1019.3 hPa | 0 mm | - | 834 W/m² | - |
| 1777749963 | 20.56° C | 24% | 1019.4 hPa | 0 mm | - | 833 W/m² | - |
| 1777749661 | 21.11° C | 24% | 1019.3 hPa | 0 mm | - | 830 W/m² | - |
| 1777749358 | 20° C | 25% | 1019.3 hPa | 0 mm | - | 833 W/m² | - |
| 1777749055 | 21.67° C | 24% | 1019.7 hPa | 0 mm | - | 827 W/m² | - |
| 1777748753 | 21.67° C | 24% | 1019.5 hPa | 0 mm | - | 828 W/m² | - |
| 1777748450 | 21.11° C | 24% | 1019.5 hPa | 0 mm | - | 826 W/m² | - |
| 1777748144 | 20.56° C | 25% | 1019.8 hPa | 0 mm | - | 825 W/m² | - |
| 1777747842 | 19.44° C | 26% | 1019.8 hPa | 0 mm | - | 822 W/m² | - |
| 1777747537 | 20.56° C | 25% | 1019.8 hPa | 0 mm | - | 820 W/m² | - |
| 1777747234 | 20.56° C | 25% | 1019.9 hPa | 0 mm | - | 813 W/m² | - |
| 1777746930 | 20.56° C | 25% | 1020 hPa | 0 mm | - | 810 W/m² | - |
| 1777746626 | 20.56° C | 25% | 1020.3 hPa | 0 mm | - | 806 W/m² | - |
| 1777746321 | 20.56° C | 25% | 1020.1 hPa | 0 mm | - | 801 W/m² | - |
| 1777746018 | 20° C | 26% | 1020 hPa | 0 mm | - | 798 W/m² | - |
* Rain latest hour (hover to see other rain measurements)
** Current wind speed in m/s (hover to see current wind gust speed)